CDT,Max TemperatureF,Mean TemperatureF,Min TemperatureF,Max Dew PointF,MeanDew PointF,Min DewpointF,Max Humidity, Mean Humidity, Min Humidity, Max Sea Level PressureIn, Mean Sea Level PressureIn, Min Sea Level PressureIn, Max VisibilityMiles, Mean VisibilityMiles, Min VisibilityMiles, Max Wind SpeedMPH, Mean Wind SpeedMPH, Max Gust SpeedMPH,PrecipitationIn, CloudCover, Events, WindDirDegrees
2012-9-1,89,81,72,74,72,70,94,77,59,30.00,29.91,29.78,10,8,1,26,11,39,1.93,7,Rain-Thunderstorm,190
2012-9-2,81,77,73,73,72,70,93,84,74,29.84,29.81,29.78,10,7,2,18,10,23,0.29,7,Rain,233
2012-9-3,83,78,73,74,72,70,94,82,69,29.87,29.82,29.77,10,7,2,15,6,18,0.13,7,Rain,273
2012-9-4,91,80,69,73,71,68,100,78,56,29.90,29.86,29.83,10,7,1,12,3,15,0.00,1,,214
2012-9-5,90,81,71,73,71,70,93,75,56,29.88,29.84,29.78,10,8,6,20,5,25,T,2,Rain-Thunderstorm,162
2012-9-6,93,79,65,73,68,64,97,74,50,30.02,29.91,29.83,10,8,1,35,5,48,0.53,2,Rain-Thunderstorm,262
2012-9-7,92,79,65,74,68,63,93,71,49,29.91,29.80,29.65,10,9,1,26,8,38,0.65,2,Rain-Thunderstorm,220
2012-9-8,75,65,55,70,59,50,93,69,44,30.00,29.89,29.78,10,10,5,20,9,26,0.03,4,Rain,333
2012-9-9,78,66,53,56,53,50,93,67,40,30.10,30.02,29.96,10,10,10,16,5,24,0.00,0,,297
2012-9-10,80,67,54,58,54,52,93,66,39,30.19,30.13,30.09,10,10,10,10,2,20,0.00,0,,74
2012-9-11,84,69,53,58,55,53,93,64,34,30.20,30.14,30.11,10,10,7,9,4,14,0.00,0,,153
2012-9-12,84,74,63,62,58,53,78,58,37,30.23,30.17,30.14,10,10,10,16,6,22,0.00,3,,165
2012-9-13,83,73,63,62,60,58,93,70,47,30.24,30.19,30.16,10,10,9,14,5,21,0.00,2,,163
2012-9-14,75,69,62,63,61,59,93,81,68,30.25,30.23,30.18,10,10,7,13,6,16,0.00,3,,16
2012-9-15,72,67,61,65,60,54,93,80,66,30.25,30.19,30.12,10,9,3,13,5,23,0.02,4,Rain,71
2012-9-16,77,71,64,67,65,63,93,81,69,30.12,30.07,29.99,10,6,2,8,3,13,0.13,7,Rain,46
2012-9-17,72,70,68,70,67,66,97,94,90,29.97,29.88,29.75,8,3,2,8,3,13,0.03,7,Rain,193
2012-9-18,70,59,47,66,52,41,100,69,37,30.09,29.88,29.73,10,9,5,22,10,30,0.00,3,,340
2012-9-19,74,58,42,48,42,36,96,63,29,30.18,30.11,30.05,10,10,9,10,3,13,0.00,0,,172
2012-9-20,82,68,53,58,50,42,93,66,39,30.05,30.00,29.93,10,10,10,18,7,25,0.00,1,,220
2012-9-21,79,67,54,62,58,53,100,75,50,30.02,29.91,29.79,10,9,4,23,8,35,0.08,3,Rain,219
2012-9-22,79,63,46,60,46,33,90,59,27,30.18,30.03,29.86,10,10,10,17,7,23,0.00,0,,316
2012-9-23,68,53,38,44,39,37,92,63,34,30.29,30.25,30.19,10,10,8,16,3,18,0.00,0,,358
2012-9-24,73,56,38,46,40,37,100,66,31,30.27,30.17,30.02,10,10,9,12,3,17,0.00,0,,157
2012-9-25,86,72,57,68,60,48,79,65,51,30.01,29.96,29.89,10,10,8,20,9,29,0.00,0,,202
2012-9-26,85,75,64,68,65,62,100,76,51,30.09,30.03,29.98,10,8,1,26,7,35,0.78,3,Rain-Thunderstorm,223
2012-9-27,79,72,65,68,66,63,93,80,67,30.14,30.10,30.06,10,8,2,14,2,17,0.39,5,Rain-Thunderstorm,231
2012-9-28,72,66,59,67,64,54,100,87,73,30.12,30.08,30.04,10,6,2,12,3,14,0.07,7,Rain-Thunderstorm,22
2012-9-29,75,64,52,56,53,50,96,70,43,30.09,30.03,29.97,10,9,7,13,3,16,0.00,0,,19
2012-9-30,72,62,52,59,55,51,93,73,53,29.96,29.88,29.79,10,5,2,7,2,9,0.00,0,,10